Other Public Products
Issued by NWS Grand Forks, ND

Home | Current Version | Previous Version | Text Only | Print | Product List | Glossary Off
Versions: 1 2 3 4 5 6 7 8 9 10 11 12 13 14 15 16 17 18 19 20 21 22 23 24 25 26 27 28 29 30 31 32 33 34 35 36 37 38 39 40 41 42 43 44 45 46 47 48 49 50

000
FPUS83 KFGF 230331
OPUFGF
PRAIRIE TO PINES WEATHER ROUNDUP
NATIONAL WEATHER SERVICE EASTERN NORTH DAKOTA/GRAND FORKS ND
1000 PM CDT THU JUN 22 2017

 **SATELLITE DATA USED TO AUGMENT SKY COVER AT AUTOMATED STATIONS**
 *****  WEATHER ACROSS EASTERN NORTH DAKOTA  *****

CITY           SKY/WX    TMP DP  RH WIND       PRES   REMARKS
GRAND FORKS    FAIR      64  45  49 W10       29.68S
GRAND FORKS AF FAIR      62  44  51 NW7       29.70R
GRAND CITY NWS NOT AVBL
BUXTON           N/A     63  43  47 W3          N/A
DEVILS LAKE    CLOUDY    60  46  59 W21G28    29.74R
FARGO          FAIR      65  39  38 W9        29.72R
WAHPETON ARPT  FAIR      59  43  55 SW9       29.76S
$$

 *****  WEATHER ACROSS CENTRAL AND WESTERN NORTH DAKOTA  *****

CITY           SKY/WX    TMP DP  RH WIND       PRES   REMARKS
JAMESTOWN      FAIR      65  38  36 NW16      29.77R
BISMARCK       MOCLDY    65  41  41 NW21G29   29.87R
MINOT          MOCLDY    60  51  72 W26G32    29.82R
MINOT AFB      MOCLDY    59  51  76 W23G30    29.79R
GARRISON         N/A     58  47  66 NW24G31   29.85R
WILLISTON      LGT RAIN  56  52  86 NW24G40   29.97R
DICKINSON      FAIR      55  42  61 NW20G29   29.95R
HETTINGER      FAIR      59  33  37 NW20G28   29.99R
$$

 *****  OTHER OBSERVATIONS NORTHEAST NORTH DAKOTA  *****

CITY           SKY/WX    TMP DP  RH WIND       PRES   REMARKS
WALHALLA       NOT AVBL
LANGDON        FAIR      57  50  77 W18       29.70R
CAVALIER       FAIR      59  46  63 W15G22    29.66R
GRAFTON        MOCLDY    63  48  59 W15G23    29.70R
CANDO          NOT AVBL
FORT TOTTEN      N/A     59  46  60 NW13      29.95S
ROLLA            N/A     55  50  82 W16       29.73R
RUGBY          NOT AVBL
 ***** THE ABOVE OBSERVATIONS ARE NON NWS ARE NOT QUALITY
        CONTROLLED AND MAY MIS-REPORT RAIN FOR SNOW...
$$

 *****  OTHER OBSERVATIONS SOUTHEAST NORTH DAKOTA *****

CITY           SKY/WX    TMP DP  RH WIND       PRES   REMARKS
COOPERSTOWN    FAIR      61  45  55 W10       29.76R
VALLEY CITY    FAIR      64  37  36 W14       29.78R
OAKES          NOT AVBL
GWINNER        CLEAR     59  46  63 CALM      29.78R
SHEYENNE NWR     N/A     62  43  49 W5        29.95S
BUFFALO          N/A     64  33  31 W9          N/A
WYNDMERE       NOT AVBL
 ***** THE ABOVE OBSERVATIONS ARE NON NWS ARE NOT QUALITY
       CONTROLLED AND MAY MIS-REPORT RAIN FOR SNOW...
$$

  *****  WEATHER ACROSS NORTHERN MINNESOTA  *****

CITY           SKY/WX    TMP DP  RH WIND       PRES   REMARKS
FLAG ISLAND    CLOUDY    59  46  63 W12G17    29.59S
WARROAD        MOCLDY    59  48  67 W12G17    29.63R
ROSEAU           N/A     61  48  63 W10G18    29.64R
HALLOCK        FAIR      61  46  59 W13G18    29.66R
THF RVR FALLS  MOCLDY    64  42  44 W15G24    29.68S
HALSTAD          N/A     60  41  48 NW8         N/A
FOSSTON        FAIR      57  43  58 W9        29.71R
BAUDETTE       MOCLDY    62  45  53 W8        29.62S
WASKISH        CLOUDY    66  46  48 W15G29    29.65S
CROOKSTON      FAIR      63  45  51 W8        29.70R
$$
  *****  WEATHER ACROSS CENTRAL AND WEST MINNESOTA  *****

CITY           SKY/WX    TMP DP  RH WIND       PRES   REMARKS
BEMIDJI        FAIR      61  42  50 SW6       29.69S
PARK RAPIDS    FAIR      58  41  53 SW7       29.72S
WADENA         FAIR      61  45  55 SW5       29.75S
DETROIT LAKES  FAIR      63  37  39 W6        29.75S
MOORHEAD       FAIR      64  37  36 W7        29.74R
FERGUS FALLS   FAIR      63  46  55 W5        29.74R
ELBOW LAKE     FAIR      63  44  49 W6        29.77S
MORRIS MN      FAIR      64  55  72 W3        29.78R
STAPLES        FAIR      61  43  51 SW5       29.75S
WHEATON        FAIR      64  46  52 SW5       29.79S
$$
  *****  WEATHER ELSEWHERE ACROSS MINNESOTA  *****

CITY           SKY/WX    TMP DP  RH WIND       PRES   REMARKS
DULUTH         MOCLDY    58  55  90 W7        29.70S
INTRNTL FALLS  FAIR      56  43  61 SW3       29.61F
ELY            FAIR      57  48  72 W5        29.67R
CLOQUET        MOCLDY    63  54  72 W7        29.72R
BRAINERD       FAIR      66  46  48 W5        29.74R
HIBBING        FAIR      58  44  60 W5        29.69R
ALEXANDRIA     FAIR      63  53  70 W6        29.79R
SAINT CLOUD    FAIR      63  54  72 W8        29.75S
MINNEAPOLIS    FAIR      66  60  81 NW6       29.75R
$$

  *****  WEATHER ACROSS SOUTH DAKOTA  *****

CITY           SKY/WX    TMP DP  RH WIND       PRES   REMARKS
SIOUX FALLS    FAIR      63  52  67 NW3       29.84R
BROOKINGS      FAIR      63  54  72 CALM      29.85R
WATERTOWN      FAIR      63  55  75 SW8       29.82R
HURON          LGT RAIN  67  54  63 SW6       29.83R
SISSETON         N/A     64  46  52 W7        29.78R
ABERDEEN       FAIR      65  43  44 W6        29.82R
MITCHELL       FAIR      68  47  46 CALM      29.85R
PIERRE         FAIR      68  40  35 N15       29.88R
MOBRIDGE       FAIR      68  36  30 NW8       29.85R
RAPID CITY     FAIR      64  34  32 N16       30.00R
$$

  *****  SOME WEATHER IN NEARBY STATES *****

CITY           SKY/WX    TMP DP  RH WIND       PRES   REMARKS
GLASGOW MT     CLOUDY    55  44  66 NW20      30.11R
GREAT FALLS MT FAIR      55  37  50 N6        30.26R
CHEYENNE WY    FAIR      66  47  50 NE9       30.07R
SCOTTSBLUFF NE CLOUDY    72  47  40 NE13      29.97R
OMAHA NE       MOCLDY    82  68  62 N15       29.69R
DES MOINES IA  MOCLDY    81  71  71 S8        29.65R THUNDER
DAVENPORT IA   FAIR      77  71  82 S8        29.70R
CHICAGO IL     CLOUDY    79  69  71 SW17G28   29.72S
EAU CLAIRE WI  FAIR      65  64  97 CALM      29.72S
LA CROSSE WI   LGT RAIN  70  68  93 N5        29.71R
$$

  *****  SOME NATIONAL WEATHER *****

CITY           SKY/WX    TMP DP  RH WIND       PRES   REMARKS
LA GUARDIA NY  CLOUDY    80  70  71 SW9       29.90S
RALEIGH NC     MOCLDY    74  72  93 SW7       30.08R
ATLANTA GA     MOCLDY    74  72  93 SE7       30.05R
NEW ORLEANS LA MOCLDY    81  78  91 S12       29.87S
OKLAHOMA CITY  FAIR      78  67  68 S8        29.68R
ALBUQUERQUE NM FAIR      94  25   8 NW8       29.89R
SALT LAKE CITY FAIR      80  37  21 N7        30.01R
LOS ANGELES CA MOCLDY    65  61  87 W10       29.83R
BOISE ID       FAIR      77  28  16 NW16      30.07R
SEATTLE WA     FAIR      70  42  36 N10       30.23S
$$

*** WEATHER ACROSS MANITOBA...SASKATCHEWAN AND ONTARIO ***
                ***ONTARIO***

CITY           SKY/WX    TMP DP  RH WIND       PRES   REMARKS
GERALDTON      MOCLDY    57  48  72 CALM      29.60R
THUNDER BAY    MOCLDY    63  50  63 NW6       29.59S
SIOUX LOOKOUT  LGT RAIN  57  46  67 W22G36    29.61R
TORONTO        CLOUDY    66  63  88 SE3       29.75F THUNDER
BIG TROUT LK   PTCLDY    55  52  88 E5        29.54R
PICKLE LAKE    NOT AVBL
DRYDEN         MOCLDY    54  48  82 S6        29.57F
KENORA         MOCLDY    57  46  67 W12G18    29.58S
$$
                *** MANITOBA***

CITY           SKY/WX    TMP DP  RH WIND       PRES   REMARKS
BRANDON        MOCLDY    59  54  82 NW17G25   29.67R
DAUPHIN        MOCLDY    59  55  88 NW7       29.65R
ISLAND LAKE    NOT AVBL
PILOT MOUND      N/A     55  48  76 W8          N/A
THE PAS        PTCLDY    54  46  76 NW18G26   29.74R
THOMPSON       LGT RAIN  55  54  94 N15G25    29.61R
WINNIPEG       LGT RAIN  57  52  82 W16       29.60R
LYNN LAKE      CLOUDY    50  43  76 NE14G24   29.80R
CHURCHILL      CLOUDY    39  37  93 NE24G31   29.80R
GILLAM         MOCLDY    54  50  87 NE17G24   29.63R
$$
                ***SASKATCHEWAN***

CITY           SKY/WX    TMP DP  RH WIND       PRES   REMARKS
ESTEVAN        LGT RAIN  54  52  94 NW25G36   29.90R
KINDERSLEY     PTCLDY    52  39  62 N12G17    30.13R
LLOYDMINSTER   PTCLDY    54  39  58 NW9       30.11S
PRINCE ALBERT  MOCLDY    52  39  62 NW14G25   29.98R
REGINA         CLOUDY    52  45  76 NW24G33   29.98R
YORKTON        CLOUDY    54  48  82 NW24      29.82R



USA.gov is the U.S. government's official web portal to all federal, state and local government web resources and services.